Regional Weather Roundup
Issued by NWS

Home | Current Version | Previous Version | Graphics & Text | Print | Product List | Glossary On
Versions: 1 2 3 4 5 6 7 8 9 10 11 12 13 14 15 16 17 18 19 20 21 22 23 24 25 26 27 28 29 30 31 32 33 34 35 36 37 38 39 40 41 42 43 44 45 46 47 48 49 50
000
ASUS43 KBIS 251331
RWRND
NORTH DAKOTA REGIONAL WEATHER ROUNDUP
NATIONAL WEATHER SERVICE EASTERN NORTH DAKOTA/GRAND FORKS ND
800 AM CDT SUN JUN 25 2017

  NOTE: "FAIR" INDICATES FEW OR NO CLOUDS BELOW 12,000 FEET WITH NO
  SIGNIFICANT WEATHER AND/OR OBSTRUCTIONS TO VISIBILITY.

NDZ001>003-009>011-017-251400-
...NORTHWEST NORTH DAKOTA...

CITY           SKY/WX    TMP DP  RH WIND       PRES   REMARKS
WILLISTON      CLOUDY    52  45  77 CALM      30.28S
MINOT          PTSUNNY   54  42  64 SW8       30.24S
MINOT AFB      PTSUNNY   53  45  74 CALM      30.24R
$$

NDZ018>021-031>035-040>046-251400-
...SOUTHWEST NORTH DAKOTA...

CITY           SKY/WX    TMP DP  RH WIND       PRES   REMARKS
BISMARCK       CLOUDY    47  41  80 CALM      30.29F
DICKINSON      FAIR      54  34  46 SW12      30.24F
GARRISON         N/A     50  46  86 W6        30.27S
HETTINGER      FAIR      51  35  54 CALM      30.31F
$$

NDZ004>008-012>016-024-026-027-054-251400-
...NORTHEAST NORTH DAKOTA...

CITY           SKY/WX    TMP DP  RH WIND       PRES   REMARKS
GRAND FORKS    FAIR      52  45  77 NW8       30.23R
GRAND FORKS AF FAIR      52  44  76 NW3       30.23S
DEVILS LAKE    FAIR      50  46  86 NW6       30.26R
$$

NDZ022-023-025-028>030-036>039-047>053-251400-
...SOUTHEAST NORTH DAKOTA...

CITY           SKY/WX    TMP DP  RH WIND       PRES   REMARKS
JAMESTOWN      FAIR      52  45  77 NW9       30.26R
FARGO          FAIR      54  43  66 NW12      30.24R
WAHPETON       FAIR      54  41  62 NW12      30.25R
$$



USA.gov is the U.S. government's official web portal to all federal, state and local government web resources and services.